Montgomery, AL

8:17 AM CST on January 18, 2017 (GMT -0600)
Maxwell Air Force Base

Weather History for KMXF - April, 2014

Change the Weather History Date:

Thursday, April 10, 2014

  Actual Average Record
Temperature  
Mean Temperature 60 °F -  
Max Temperature 77 °F 75 °F 91 °F (1999)
Min Temperature 44 °F 53 °F 44 °F (2003)
Degree Days  
Heating Degree Days 4    
Growing Degree Days 10 (Base 50)    
Moisture  
Dew Point 45 °F    
Average Humidity 70    
Maximum Humidity 100    
Minimum Humidity 29    
Precipitation  
Precipitation 0.00 in - - ()
Sea Level Pressure  
Sea Level Pressure 30.22 in    
Wind  
Wind Speed 3 mph (SW)    
Max Wind Speed 12 mph    
Max Gust Speed -    
Visibility 7 miles    
Events Fog    
Averages and records for this station are not official NWS values.
T = Trace of Precipitation, MM = Missing Value Source: NWS Daily Summary

Daily Weather History Graph

Daily Weather History Graph

Search for Another Location

Airport or City:

Trip Planner

Search our weather history database for the weather conditions in past years. The results will help you decide how hot, cold, wet, or windy it might be!

Date:

Astronomy

Apr. 10, 2014 Rise Set
Actual Time 6:22 AM CDT 7:11 PM CDT
Civil Twilight 5:57 AM CDT 7:36 PM CDT
Nautical Twilight 5:27 AM CDT 8:06 PM CDT
Astronomical Twilight 4:57 AM CDT 8:36 PM CDT
Moon 3:08 PM CDT (4/10) 3:29 AM CDT (4/10)
Length of Visible Light 13h 39m
Length of Day
12h 49m
Waxing Gibbous, 80% of the Moon is Illuminated
Apr 10
Waxing Gibbous
Apr 15
Full
Apr 22
Last Quarter
Apr 29
New
May 6
First Quarter

Hourly Weather History & Observations

Time (CDT) Temp. Dew Point Humidity Pressure Visibility Wind Dir Wind Speed Gust Speed Precip Events Conditions
12:58 AM 50.0 °F 45.7 °F 85% 30.20 in 10.0 mi Calm Calm - N/A   Clear
1:58 AM 48.0 °F 45.9 °F 92% 30.20 in 10.0 mi SSW 2.3 mph - N/A   Clear
2:58 AM 47.5 °F 46.0 °F 95% 30.20 in 10.0 mi NNW 1.2 mph - N/A   Clear
3:58 AM 47.5 °F 46.2 °F 95% 30.20 in 10.0 mi Calm Calm - N/A   Clear
4:58 AM 46.4 °F 45.9 °F 98% 30.21 in 10.0 mi Calm Calm - N/A   Clear
5:58 AM 45.7 °F 45.1 °F 98% 30.23 in 10.0 mi Calm Calm - N/A   Clear
6:13 AM 44.6 °F 44.6 °F 100% 30.23 in 1.2 mi NW 2.3 mph - N/A   Clear
6:15 AM 46.4 °F 46.4 °F 100% 30.23 in 0.2 mi NW 1.2 mph - N/A Fog Fog
6:20 AM 46.4 °F 46.4 °F 100% 30.23 in 0.2 mi NNW 2.3 mph - N/A Fog Fog
6:24 AM 44.6 °F 44.6 °F 100% 30.23 in 0.2 mi North 1.2 mph - N/A Fog Fog
6:39 AM 44.6 °F 44.6 °F 100% 30.24 in 0.2 mi Calm Calm - N/A Fog Fog
6:54 AM 44.6 °F 44.6 °F 100% 30.25 in 0.5 mi North 1.2 mph - N/A Fog Fog
6:58 AM 46.4 °F 46.4 °F 100% 30.26 in 0.8 mi North 1.2 mph - 0.00 in   Clear
7:03 AM 46.4 °F 46.4 °F 100% 30.25 in 1.5 mi NNW 2.3 mph - N/A   Clear
7:08 AM 46.4 °F 46.4 °F 100% 30.26 in 4.0 mi North 2.3 mph - N/A   Clear
7:58 AM 52.2 °F 51.8 °F 99% 30.28 in 10.0 mi Calm Calm - N/A   Clear
8:58 AM 57.9 °F 49.8 °F 74% 30.29 in 10.0 mi Variable 1.2 mph - N/A   Clear
9:58 AM 64.9 °F 47.1 °F 52% 30.29 in 10.0 mi Variable 4.6 mph - N/A   Clear
10:58 AM 70.0 °F 44.1 °F 39% 30.29 in 10.0 mi Variable 5.8 mph - N/A   Clear
11:58 AM 71.4 °F 42.1 °F 35% 30.27 in 10.0 mi South 6.9 mph - N/A   Clear
12:58 PM 72.5 °F 42.6 °F 34% 30.25 in 10.0 mi SSE 10.4 mph - N/A   Clear
1:58 PM 73.9 °F 42.8 °F 33% 30.22 in 9.0 mi SW 8.1 mph - N/A   Clear
2:58 PM 75.6 °F 43.0 °F 31% 30.19 in 10.0 mi Variable 4.6 mph - N/A   Clear
3:58 PM 77.0 °F 43.0 °F 30% 30.17 in 10.0 mi SSE 11.5 mph - N/A   Clear
4:58 PM 77.5 °F 42.6 °F 29% 30.16 in 10.0 mi SSW 10.4 mph - N/A   Clear
5:58 PM 76.6 °F 41.9 °F 29% 30.16 in 10.0 mi South 10.4 mph - N/A   Clear
6:58 PM 70.3 °F 46.2 °F 42% 30.16 in 10.0 mi South 8.1 mph - N/A   Clear
7:58 PM 66.0 °F 45.0 °F 47% 30.16 in 10.0 mi South 5.8 mph - N/A   Clear
8:58 PM 63.9 °F 45.7 °F 52% 30.19 in 10.0 mi South 5.8 mph - N/A   Clear
9:58 PM 64.9 °F 45.7 °F 50% 30.21 in 10.0 mi South 8.1 mph - N/A   Clear
10:58 PM 62.2 °F 45.5 °F 54% 30.22 in 10.0 mi SSW 3.5 mph - N/A   Clear
11:58 PM 58.5 °F 45.1 °F 61% 30.22 in 10.0 mi South 2.3 mph - N/A   Clear